Weather History for Orlando International, FL

Change the Weather History Date:

Saturday, August 24, 2013

  Actual Average Record
Temperature  
Mean Temperature 84 °F 83 °F  
Max Temperature 94 °F 91 °F 99 °F (1915)
Min Temperature 74 °F 74 °F 64 °F (1957)
Degree Days  
Heating Degree Days 0 0  
Month to date heating degree days 0 0  
Since 1 June heating degree days 0 0  
Since 1 July heating degree days 0 0  
Cooling Degree Days 19 18  
Month to date cooling degree days 461 432  
Year to date cooling degree days 2371 2272  
Since 1 June cooling degree days 1499 1471  
Growing Degree Days 33 (Base 50)    
Moisture  
Dew Point 75 °F    
Average Humidity 78    
Maximum Humidity 100    
Minimum Humidity 56    
Precipitation  
Precipitation 2.96 in 0.22 in 2.98 in (1995)
Month to date precipitation 4.66 5.59  
Year to date precipitation 34.20 35.07  
Sea Level Pressure  
Sea Level Pressure 30.08 in    
Wind  
Wind Speed 3 mph (ENE)    
Max Wind Speed 28 mph    
Max Gust Speed 32 mph    
Visibility 7 miles    
Events Fog , Rain , Thunderstorm    
T = Trace of Precipitation, MM = Missing Value Source: NWS Daily Summary

Daily Weather History Graph

Daily Weather History Graph

Search for Another Location

Airport:

Trip Planner

Search our weather history database for the weather conditions in past years. The results will help you decide how hot, cold, wet, or windy it might be!

Date:

Astronomy

Aug. 24, 2013 Rise Set
Actual Time 6:59 AM EDT 7:54 PM EDT
Civil Twilight 6:35 AM EDT 8:19 PM EDT
Nautical Twilight 6:06 AM EDT 8:47 PM EDT
Astronomical Twilight 5:37 AM EDT 9:17 PM EDT
Moon 10:15 PM EDT (8/24) 10:33 AM EDT (8/24)
Length of Visible Light 13h 43m
Length of Day
12h 55m
Waning Gibbous, 84% of the Moon is Illuminated
Aug 24
Waning Gibbous
Aug 28
Last Quarter
Sep 5
New
Sep 12
First Quarter
Sep 19
Full

Hourly Weather History & Observations

Time (EDT) Temp. Heat Index Dew Point Humidity Pressure Visibility Wind Dir Wind Speed Gust Speed Precip Events Conditions
12:53 AM 78.1 °F - 75.9 °F 93% 30.04 in 10.0 mi Calm Calm - N/A   Scattered Clouds
1:53 AM 79.0 °F - 75.9 °F 90% 30.03 in 10.0 mi Calm Calm - N/A   Mostly Cloudy
2:53 AM 77.0 °F - 75.9 °F 96% 30.02 in 10.0 mi Calm Calm - N/A   Scattered Clouds
3:53 AM 78.1 °F - 75.9 °F 93% 30.03 in 10.0 mi Calm Calm - N/A   Scattered Clouds
4:53 AM 77.0 °F - 75.9 °F 96% 30.03 in 10.0 mi Calm Calm - N/A   Scattered Clouds
5:53 AM 75.9 °F - 75.0 °F 97% 30.03 in 10.0 mi Calm Calm - N/A   Scattered Clouds
6:53 AM 75.0 °F - 73.9 °F 96% 30.04 in 5.0 mi Calm Calm - N/A   Scattered Clouds
6:55 AM 75.2 °F - 73.4 °F 94% 30.04 in 1.8 mi Calm Calm - N/A   Clear
6:58 AM 75.2 °F - 73.4 °F 94% 30.04 in 4.0 mi Calm Calm - N/A   Mostly Cloudy
7:53 AM 79.0 °F - 77.0 °F 94% 30.06 in 10.0 mi Calm Calm - N/A   Mostly Cloudy
8:53 AM 81.0 °F 87.9 °F 77.0 °F 88% 30.08 in 10.0 mi Calm Calm - N/A   Mostly Cloudy
9:53 AM 82.9 °F 90.2 °F 75.0 °F 77% 30.10 in 10.0 mi SSE 4.6 mph - N/A   Scattered Clouds
10:53 AM 87.1 °F 95.4 °F 73.9 °F 65% 30.11 in 10.0 mi Calm Calm - N/A   Mostly Cloudy
11:53 AM 86.0 °F 93.8 °F 73.9 °F 67% 30.10 in 10.0 mi Calm Calm - N/A   Mostly Cloudy
12:53 PM 90.0 °F 96.9 °F 72.0 °F 55% 30.09 in 10.0 mi SSE 3.5 mph - N/A   Mostly Cloudy
1:53 PM 91.9 °F 100.7 °F 73.0 °F 54% 30.07 in 10.0 mi North 3.5 mph - N/A   Scattered Clouds
2:47 PM 89.6 °F 96.2 °F 71.6 °F 55% 30.05 in 10.0 mi WSW 4.6 mph - N/A Thunderstorm Thunderstorm
2:53 PM 89.1 °F 96.0 °F 72.0 °F 57% 30.05 in 10.0 mi SW 3.5 mph - N/A Thunderstorm Thunderstorm
3:06 PM 80.6 °F 86.2 °F 75.2 °F 84% 30.06 in 1.5 mi ENE 21.9 mph 29.9 mph 0.07 in Rain , Thunderstorm Light Thunderstorms and Rain
3:07 PM 78.8 °F - 75.2 °F 89% 30.06 in 1.0 mi ENE 23.0 mph 29.9 mph 0.13 in Rain , Thunderstorm Light Thunderstorms and Rain
3:11 PM 78.8 °F - 75.2 °F 89% 30.05 in 0.8 mi ENE 21.9 mph 29.9 mph 0.29 in Rain , Thunderstorm Light Thunderstorms and Rain
3:18 PM 75.2 °F - 75.2 °F 100% 30.08 in 0.5 mi ENE 12.7 mph 26.5 mph 0.63 in Rain , Thunderstorm Thunderstorms and Rain
3:42 PM 73.4 °F - 73.4 °F 100% 30.09 in 0.2 mi ENE 27.6 mph 32.2 mph 1.59 in Fog , Rain , Thunderstorm Heavy Thunderstorms and Rain
3:53 PM 73.9 °F - 73.9 °F 100% 30.11 in 0.5 mi ENE 15.0 mph 27.6 mph 2.40 in Fog , Rain , Thunderstorm Heavy Thunderstorms and Rain
3:56 PM 75.2 °F - 75.2 °F 100% 30.11 in 1.0 mi ENE 12.7 mph - 0.04 in Rain , Thunderstorm Heavy Thunderstorms and Rain
4:18 PM 75.2 °F - 75.2 °F 100% 30.13 in 1.5 mi ENE 11.5 mph - 0.28 in Rain , Thunderstorm Heavy Thunderstorms and Rain
4:30 PM 75.2 °F - 75.2 °F 100% 30.13 in 3.0 mi East 9.2 mph - 0.31 in Rain , Thunderstorm Thunderstorms and Rain
4:53 PM 75.9 °F - 75.9 °F 100% 30.10 in 4.0 mi East 8.1 mph - 0.45 in Rain , Thunderstorm Thunderstorms and Rain
5:35 PM 75.2 °F - 75.2 °F 100% 30.11 in 9.0 mi East 4.6 mph - 0.04 in Rain Rain
5:53 PM 75.9 °F - 75.9 °F 100% 30.09 in 5.0 mi ENE 9.2 mph - 0.08 in Rain Rain
6:01 PM 75.2 °F - 75.2 °F 100% 30.09 in 7.0 mi ENE 12.7 mph - 0.01 in Rain Light Rain
6:53 PM 75.9 °F - 75.9 °F 100% 30.09 in 10.0 mi NNE 5.8 mph - 0.02 in Rain Light Rain
7:53 PM 75.9 °F - 73.9 °F 94% 30.08 in 10.0 mi ENE 5.8 mph - 0.00 in Rain Light Rain
8:53 PM 75.0 °F - 73.0 °F 94% 30.09 in 10.0 mi ESE 5.8 mph - 0.00 in   Overcast
9:53 PM 75.9 °F - 73.9 °F 94% 30.12 in 10.0 mi Calm Calm - N/A   Overcast
10:53 PM 75.9 °F - 75.0 °F 97% 30.13 in 10.0 mi Calm Calm - N/A   Overcast
11:53 PM 75.9 °F - 73.9 °F 94% 30.13 in 10.0 mi Calm Calm - 0.01 in   Scattered Clouds